Flag for U.S.A. Weather past 2 weeks in Lewiston, Idaho, U.S.A.

Now
60 °F

Sunny.


Feels Like: 60 °F
Forecast: 52 / 74 °F
Wind: 6 mph from South

Location: Lewiston-Nez Perce County Airport

Current Time: May 26, 2015 at 9:58:35 PM

Latest Report: May 26, 2015 at 8:56 PM


Visibility: 10 mi

Pressure: 29.93 "Hg

Humidity: 72%

Dew point: 51 °F

Location of LewistonLocation

Historic Weather in Lewiston — Graph

°F

Lewiston temperature yesterday

Maximum temperature yesterday: 74 °F (at 3:56 PM)
Minimum temperature yesterday: 57 °F (at 5:56 AM)
Average temperature yesterday: 65 °F

Past Weeks' High & Low Weather Summary

 TemperatureHumidityPressure
High83 °F (May 22, 2:56 PM)100% (May 13, 2:04 AM)30.04 "Hg (May 13, 2:04 AM)
Low43 °F (May 14, 5:56 AM)26% (May 20, 3:56 PM)29.65 "Hg (May 13, 2:56 AM)
Average64 °F60%29.85 "Hg
* Reported May 11 8:56 PM — May 26 8:56 PM, Lewiston, Weather by CustomWeather, © 2015

Note: Actual official high and low records may vary slightly from our data, if they occured in-between our weather recording intervals... More about our weather records

Advertising

Lewiston weather history for previous 24 hours

 ConditionsComfort  
Time TempWeatherWind HumidityBarometerVisibility
8:56 PM
Tue, May 26
60 °FSunny.6 mph72%29.93 "Hg10 mi
7:56 PM63 °FSunny.7 mph65%29.91 "Hg10 mi
6:56 PM63 °FPartly sunny.6 mph70%29.91 "Hg10 mi
5:56 PM66 °FThundershowers. Broken clouds.10 mph54%29.91 "Hg10 mi
4:56 PM74 °FPartly sunny.9 mph38%29.90 "Hg10 mi
3:56 PM73 °FSunny.7 mph41%29.90 "Hg10 mi
2:56 PM70 °FSunny.3 mph49%29.92 "Hg10 mi
1:56 PM65 °FLight rain. Mostly cloudy.3 mph61%29.94 "Hg10 mi
12:56 PM66 °FPassing clouds.8 mph56%29.95 "Hg10 mi
11:56 AM67 °FPassing clouds.7 mph55%29.94 "Hg10 mi
10:56 AM68 °FPartly sunny.3 mph55%29.93 "Hg10 mi
9:56 AM66 °FScattered clouds.6 mph59%29.94 "Hg10 mi
8:56 AM64 °FPartly sunny.7 mph68%29.94 "Hg10 mi
7:56 AM58 °FOvercast.3 mph81%29.95 "Hg10 mi
6:56 AM57 °FSunny.No wind83%29.93 "Hg10 mi
5:56 AM57 °FOvercast.5 mph81%29.92 "Hg10 mi
4:56 AM56 °FOvercast.5 mph81%29.91 "Hg10 mi
3:56 AM57 °FPassing clouds.No wind83%29.89 "Hg10 mi
2:56 AM58 °FPassing clouds.7 mph75%29.89 "Hg10 mi
1:56 AM59 °FPassing clouds.6 mph75%29.88 "Hg10 mi
12:56 AM61 °FThunderstorms. Mostly cloudy.6 mph72%29.88 "Hg9 mi
11:56 PM
Mon, May 25
64 °FMostly cloudy.6 mph58%29.86 "Hg10 mi
10:56 PM64 °FMostly cloudy.6 mph58%29.85 "Hg10 mi
9:56 PM63 °FPassing clouds.5 mph60%29.85 "Hg10 mi
Weather by CustomWeather, © 2015

See weather overviewHow to use our weather pages